TimeCST,TemperatureF,Dew PointF,Humidity,Sea Level PressureIn,VisibilityMPH,Wind Direction,Wind SpeedMPH,Gust SpeedMPH,PrecipitationIn,Events,Conditions,WindDirDegrees,DateUTC
12:16 AM,30.2,26.6,86,30.20,5.0,SSE,8.1,-,N/A,,Clear,150,2013-03-08 06:16:00
12:37 AM,30.2,26.6,86,30.19,5.0,SSE,9.2,-,N/A,,Clear,160,2013-03-08 06:37:00
12:57 AM,30.2,26.6,86,30.20,5.0,SSE,6.9,-,N/A,,Clear,150,2013-03-08 06:57:00
1:17 AM,30.2,26.6,86,30.20,5.0,SSE,6.9,-,N/A,,Clear,160,2013-03-08 07:17:00
1:36 AM,28.4,24.8,86,30.20,5.0,SSE,5.8,-,N/A,,Clear,160,2013-03-08 07:36:00
1:57 AM,28.4,24.8,86,30.20,5.0,South,5.8,-,N/A,,Clear,170,2013-03-08 07:57:00
2:17 AM,28.4,24.8,86,30.20,5.0,South,5.8,-,N/A,,Clear,170,2013-03-08 08:17:00
2:36 AM,28.4,24.8,86,30.20,5.0,SSE,4.6,-,N/A,,Clear,160,2013-03-08 08:36:00
2:57 AM,28.4,24.8,86,30.19,5.0,SSE,3.5,-,N/A,,Clear,150,2013-03-08 08:57:00
3:17 AM,28.4,24.8,86,30.19,5.0,SSE,3.5,-,N/A,,Clear,160,2013-03-08 09:17:00
3:36 AM,28.4,24.8,86,30.18,5.0,SSE,3.5,-,N/A,,Clear,150,2013-03-08 09:36:00
3:57 AM,28.4,24.8,86,30.18,5.0,SE,3.5,-,N/A,,Clear,130,2013-03-08 09:57:00
4:17 AM,26.6,23.0,86,30.19,5.0,SE,4.6,-,N/A,,Clear,130,2013-03-08 10:17:00
4:36 AM,26.6,23.0,86,30.18,5.0,SE,4.6,-,N/A,,Clear,130,2013-03-08 10:36:00
4:57 AM,26.6,23.0,86,30.18,5.0,SE,3.5,-,N/A,,Clear,130,2013-03-08 10:57:00
5:17 AM,26.6,23.0,86,30.19,5.0,SE,3.5,-,N/A,,Clear,140,2013-03-08 11:17:00
5:37 AM,26.6,23.0,86,30.20,5.0,ESE,3.5,-,N/A,,Clear,120,2013-03-08 11:37:00
5:57 AM,26.6,23.0,86,30.19,5.0,ESE,3.5,-,N/A,,Clear,120,2013-03-08 11:57:00
6:17 AM,26.6,23.0,86,30.19,5.0,ESE,3.5,-,N/A,,Clear,120,2013-03-08 12:17:00
6:37 AM,26.6,23.0,86,30.19,5.0,Calm,Calm,-,N/A,,Clear,0,2013-03-08 12:37:00
6:57 AM,26.6,23.0,86,30.18,5.0,Calm,Calm,-,N/A,,Clear,0,2013-03-08 12:57:00
7:17 AM,26.6,23.0,86,30.19,4.0,SSE,3.5,-,N/A,,Clear,160,2013-03-08 13:17:00
7:37 AM,26.6,23.0,86,30.18,4.0,Calm,Calm,-,N/A,,Clear,0,2013-03-08 13:37:00
7:57 AM,28.4,23.0,80,30.18,4.0,SE,3.5,-,N/A,,Clear,130,2013-03-08 13:57:00
8:17 AM,28.4,23.0,80,30.18,5.0,ESE,3.5,-,N/A,,Haze,120,2013-03-08 14:17:00
8:57 AM,30.2,26.6,86,30.19,5.0,SE,5.8,-,N/A,,Haze,130,2013-03-08 14:57:00
9:16 AM,32.0,26.6,80,30.19,5.0,SE,5.8,-,N/A,,Haze,130,2013-03-08 15:16:00
9:37 AM,32.0,26.6,80,30.19,5.0,SSE,5.8,-,N/A,,Haze,150,2013-03-08 15:37:00
9:57 AM,32.0,28.4,87,30.19,5.0,South,6.9,-,N/A,,Haze,170,2013-03-08 15:57:00
10:16 AM,32.0,28.4,87,30.19,5.0,SSE,5.8,-,N/A,,Haze,150,2013-03-08 16:16:00
10:37 AM,33.8,28.4,81,30.19,5.0,SSE,5.8,-,N/A,,Haze,150,2013-03-08 16:37:00
10:57 AM,35.6,30.2,81,30.17,5.0,ESE,8.1,-,N/A,,Haze,110,2013-03-08 16:57:00
11:16 AM,35.6,30.2,81,30.15,5.0,ESE,9.2,-,N/A,,Haze,110,2013-03-08 17:16:00
11:37 AM,37.4,30.2,75,30.14,5.0,East,8.1,-,N/A,,Haze,100,2013-03-08 17:37:00
11:56 AM,37.4,32.0,81,30.14,7.0,ESE,8.1,-,N/A,,Clear,120,2013-03-08 17:56:00
12:17 PM,39.2,32.0,75,30.14,5.0,SE,9.2,-,N/A,,Haze,130,2013-03-08 18:17:00
12:37 PM,41.0,32.0,70,30.12,7.0,ESE,10.4,-,N/A,,Clear,120,2013-03-08 18:37:00
12:56 PM,41.0,32.0,70,30.12,7.0,ESE,9.2,-,N/A,,Clear,120,2013-03-08 18:56:00
1:17 PM,41.0,33.8,76,30.11,5.0,SE,8.1,-,N/A,,Haze,130,2013-03-08 19:17:00
1:37 PM,42.8,32.0,66,30.10,7.0,SE,9.2,-,N/A,,Clear,130,2013-03-08 19:37:00
1:56 PM,42.8,33.8,70,30.09,7.0,ESE,8.1,-,N/A,,Clear,120,2013-03-08 19:56:00
2:17 PM,42.8,33.8,70,30.08,7.0,ESE,11.5,-,N/A,,Clear,110,2013-03-08 20:17:00
2:37 PM,42.8,33.8,70,30.06,5.0,East,11.5,-,N/A,,Haze,100,2013-03-08 20:37:00
2:56 PM,42.8,33.8,70,30.07,5.0,ESE,11.5,16.1,N/A,,Haze,110,2013-03-08 20:56:00
3:17 PM,42.8,33.8,70,30.06,5.0,ESE,11.5,-,N/A,,Haze,110,2013-03-08 21:17:00
3:36 PM,42.8,33.8,70,30.06,5.0,ESE,11.5,-,N/A,,Haze,110,2013-03-08 21:36:00
3:57 PM,42.8,33.8,70,30.05,5.0,ESE,11.5,-,N/A,,Haze,110,2013-03-08 21:57:00
4:17 PM,41.0,33.8,76,30.05,5.0,ESE,15.0,18.4,N/A,,Haze,110,2013-03-08 22:17:00
4:36 PM,41.0,33.8,76,30.03,5.0,ESE,13.8,-,N/A,,Haze,120,2013-03-08 22:36:00
4:57 PM,39.2,33.8,81,30.03,5.0,ESE,11.5,-,N/A,,Haze,110,2013-03-08 22:57:00
5:17 PM,39.2,33.8,81,30.03,4.0,ESE,11.5,-,N/A,,Haze,110,2013-03-08 23:17:00
5:37 PM,37.4,32.0,81,30.02,4.0,East,10.4,-,N/A,,Haze,100,2013-03-08 23:37:00
5:57 PM,37.4,32.0,81,30.02,4.0,ESE,11.5,-,N/A,,Haze,110,2013-03-08 23:57:00
6:17 PM,35.6,32.0,87,30.02,5.0,ESE,10.4,-,N/A,,Haze,110,2013-03-09 00:17:00
6:36 PM,35.6,32.0,87,30.02,5.0,East,9.2,-,N/A,,Overcast,100,2013-03-09 00:36:00
6:57 PM,35.6,32.0,87,30.02,5.0,East,10.4,-,N/A,,Mostly Cloudy,100,2013-03-09 00:57:00
7:17 PM,35.6,32.0,87,30.02,4.0,East,9.2,-,N/A,,Overcast,90,2013-03-09 01:17:00
7:36 PM,33.8,32.0,93,30.01,4.0,East,9.2,-,N/A,,Overcast,90,2013-03-09 01:36:00
7:57 PM,33.8,32.0,93,30.01,4.0,East,9.2,-,N/A,,Overcast,100,2013-03-09 01:57:00
8:17 PM,33.8,32.0,93,30.01,4.0,East,9.2,-,N/A,,Overcast,100,2013-03-09 02:17:00
8:36 PM,33.8,32.0,93,30.00,4.0,East,9.2,-,N/A,,Overcast,100,2013-03-09 02:36:00
8:57 PM,35.6,32.0,87,29.99,4.0,ESE,11.5,-,N/A,,Overcast,110,2013-03-09 02:57:00
9:17 PM,33.8,32.0,93,29.99,3.0,ESE,10.4,16.1,N/A,Rain,Rain,110,2013-03-09 03:17:00
9:36 PM,33.8,32.0,93,29.98,3.0,ESE,12.7,-,N/A,Rain,Light Rain,120,2013-03-09 03:36:00
9:57 PM,33.8,32.0,93,29.98,3.0,ESE,11.5,-,N/A,Rain,Rain,120,2013-03-09 03:57:00
10:16 PM,33.8,32.0,93,29.99,2.5,SE,9.2,-,0.01,Rain,Rain,140,2013-03-09 04:16:00
10:36 PM,33.8,32.0,93,29.98,1.8,SE,9.2,-,0.03,Rain,Rain,140,2013-03-09 04:36:00
10:57 PM,35.6,32.0,87,29.97,3.0,ESE,12.7,-,N/A,Rain,Rain,120,2013-03-09 04:57:00
11:17 PM,33.8,32.0,93,29.96,3.0,ESE,9.2,-,0.01,Rain,Light Rain,120,2013-03-09 05:17:00
11:36 PM,33.8,32.0,93,29.94,2.5,SE,10.4,-,0.01,Rain,Light Rain,130,2013-03-09 05:36:00
11:57 PM,33.8,32.0,93,29.93,2.5,SE,10.4,-,N/A,Rain,Light Rain,130,2013-03-09 05:57:00